CAPE
0 0 0 0 0 0 0 0 0 0 0 0 0 0 0 0 0 0 0 0 0 0 0 0 0 0 0 0 0 0 0 0 0 0 0 0 0 0 98 510 272 177 130 77 279
0 0 0 0 0 0 0 0 0 0 0 0 0 0 0 0 0 0 0 0 0 0 0 0 0 0 0 0 0 0 0 0 0 0 0 0 0 0 0 28 175 608 539 426 297
0 0 0 0 0 0 0 0 0 0 0 0 0 0 0 0 0 0 0 0 0 0 0 0 0 0 0 0 0 0 0 0 0 0 0 0 0 0 0 0 0 207 488 501 439
0 0 0 0 0 0 0 0 0 0 0 0 0 0 0 0 0 0 0 0 0 0 0 0 0 0 0 0 0 0 0 0 0 0 0 0 0 0 0 0 0 669 823 584 523
0 0 0 0 0 0 0 0 0 0 0 0 0 0 0 0 0 0 0 0 0 0 0 0 0 0 0 0 0 0 0 0 0 0 0 0 0 0 0 0 126 965 1124 758 533
0 0 0 0 0 0 0 0 0 0 0 0 0 0 0 0 0 0 0 0 0 0 0 0 0 0 0 0 0 0 0 0 0 0 0 0 0 0 0 0 98 867 1204 1028 684
0 0 0 0 0 0 0 0 0 0 0 0 0 0 0 0 0 0 0 0 0 0 0 0 0 0 0 0 0 0 0 0 0 0 0 0 0 0 0 0 3 564 1133 727 877
0 0 0 0 0 0 0 0 0 0 0 0 0 0 0 0 0 0 0 0 0 0 0 0 0 0 0 0 0 0 0 0 0 0 0 0 0 0 0 0 0 116 622 692 308
0 0 0 0 0 0 0 0 0 0 0 0 0 0 0 0 0 0 0 0 0 0 0 0 0 0 0 0 0 0 0 0 0 0 0 0 0 0 0 0 0 0 57 253 310
0 0 0 0 0 0 0 0 0 0 0 0 0 0 0 0 0 0 0 0 0 0 0 0 0 0 0 0 0 0 0 0 0 0 0 0 0 0 0 0 0 0 0 0 95
0 0 0 0 0 0 0 0 0 0 0 0 0 0 0 0 0 0 0 0 0 0 0 0 0 0 0 0 0 0 0 0 0 0 0 0 0 0 0 0 0 0 0 0 0
0 0 0 0 0 0 0 0 0 0 0 0 0 0 0 0 0 0 0 0 0 0 0 0 0 0 0 0 0 0 0 0 0 0 0 0 0 0 0 0 0 0 0 18 196
0 0 0 0 0 0 0 0 0 0 0 0 0 0 0 0 0 0 0 0 0 0 0 0 0 0 0 0 0 0 0 0 0 0 0 0 0 0 0 0 0 0 1 169 283
0 0 0 0 0 0 0 0 0 0 0 0 0 0 0 0 0 0 0 0 0 0 0 0 0 0 0 0 0 0 0 0 0 0 0 0 0 0 0 0 0 0 0 2 279
0 0 0 0 0 0 0 0 0 0 0 0 0 0 0 0 0 0 0 0 0 0 0 0 0 0 0 0 0 0 0 0 0 0 0 0 0 0 0 0 0 0 0 0 3
0 0 0 0 0 0 0 0 0 0 0 0 0 0 0 0 0 0 0 0 0 0 0 0 0 0 0 0 0 0 0 0 0 0 0 0 0 0 0 0 0 0 0 0 0
0 0 0 0 0 0 0 0 0 0 0 0 0 0 0 0 0 0 0 0 0 0 0 0 0 0 0 0 0 0 0 0 0 0 0 0 0 0 0 0 0 0 0 0 0
0 0 0 0 0 0 0 0 0 0 0 0 0 0 0 0 0 0 0 0 0 0 0 0 0 0 0 0 0 0 0 0 0 0 0 0 0 0 0 0 0 0 0 0 0
0 0 0 0 0 0 0 0 0 0 0 0 0 0 0 0 0 0 0 0 0 0 0 0 0 0 0 0 0 0 0 0 0 0 0 0 0 0 0 0 0 0 0 0 0
0 0 0 0 0 0 0 0 0 0 0 0 0 0 0 0 0 0 0 0 0 0 0 0 0 0 0 0 0 0 0 0 0 0 0 0 0 0 0 0 0 0 0 0 0
0 0 0 0 0 0 0 0 0 0 0 0 0 0 0 0 0 0 0 0 0 0 0 0 0 0 0 0 0 0 0 0 0 0 0 0 0 0 0 0 0 0 0 0 0
0 0 0 0 0 0 0 0 0 0 0 0 0 0 0 0 0 0 0 0 0 0 0 0 0 0 0 0 0 0 0 0 0 0 0 0 0 0 0 0 0 0 0 0 0
0 0 0 0 0 0 0 0 0 0 0 0 0 0 0 0 0 0 0 0 0 0 0 0 0 0 0 0 0 0 0 0 0 0 0 0 0 0 0 0 0 0 0 0 0
0 0 0 0 0 0 0 0 0 0 0 0 0 0 0 0 0 0 0 0 0 0 0 0 0 0 0 0 0 0 0 0 0 0 0 0 0 0 0 0 0 0 0 0 0
0 0 0 0 0 0 0 0 0 0 0 0 0 0 0 0 0 0 0 0 0 0 0 0 0 0 0 0 0 0 0 0 0 0 0 0 0 0 0 0 0 0 0 0 0
0 0 0 0 0 0 0 0 0 0 0 0 0 0 0 0 0 0 0 0 0 0 0 0 0 0 0 0 0 0 0 0 0 0 0 0 0 0 0 0 0 0 0 0 0
0 0 0 0 0 0 0 0 0 0 0 0 0 0 0 0 0 0 0 0 0 0 0 0 0 0 0 0 0 0 0 0 0 0 0 0 0 0 0 0 0 0 0 0 0
CIN
-0 -0 -0 -0 -0 -0 -0 -0 -0 -0 -0 -0 -0 -0 -0 -0 -0 -0 -0 -0 -0 -0 -0 -0 -0 -0 -0 -0 -0 -0 -0 -0 -0 -0 -0 -0 -0 -0 -84 -48 -120 -197 -199 -284 -478
-0 -0 -0 -0 -0 -0 -0 -0 -0 -0 -0 -0 -0 -0 -0 -0 -0 -0 -0 -0 -0 -0 -0 -0 -0 -0 -0 -0 -0 -0 -0 -0 -0 -0 -0 -0 -0 -0 -0 -31 -75 -91 -205 -323 -478
-0 -0 -0 -0 -0 -0 -0 -0 -0 -0 -0 -0 -0 -0 -0 -0 -0 -0 -0 -0 -0 -0 -0 -0 -0 -0 -0 -0 -0 -0 -0 -0 -0 -0 -0 -0 -0 -0 -0 -0 -0 -77 -162 -317 -399
-0 -0 -0 -0 -0 -0 -0 -0 -0 -0 -0 -0 -0 -0 -0 -0 -0 -0 -0 -0 -0 -0 -0 -0 -0 -0 -0 -0 -0 -0 -0 -0 -0 -0 -0 -0 -0 -0 -0 -0 -0 -90 -164 -261 -326
-0 -0 -0 -0 -0 -0 -0 -0 -0 -0 -0 -0 -0 -0 -0 -0 -0 -0 -0 -0 -0 -0 -0 -0 -0 -0 -0 -0 -0 -0 -0 -0 -0 -0 -0 -0 -0 -0 -0 -0 -179 -110 -123 -203 -261
-0 -0 -0 -0 -0 -0 -0 -0 -0 -0 -0 -0 -0 -0 -0 -0 -0 -0 -0 -0 -0 -0 -0 -0 -0 -0 -0 -0 -0 -0 -0 -0 -0 -0 -0 -0 -0 -0 -0 -0 -184 -103 -74 -137 -201
-0 -0 -0 -0 -0 -0 -0 -0 -0 -0 -0 -0 -0 -0 -0 -0 -0 -0 -0 -0 -0 -0 -0 -0 -0 -0 -0 -0 -0 -0 -0 -0 -0 -0 -0 -0 -0 -0 -0 -0 -243 -100 -102 -166 -212
-0 -0 -0 -0 -0 -0 -0 -0 -0 -0 -0 -0 -0 -0 -0 -0 -0 -0 -0 -0 -0 -0 -0 -0 -0 -0 -0 -0 -0 -0 -0 -0 -0 -0 -0 -0 -0 -0 -0 -0 -0 -178 -133 -168 -273
-0 -0 -0 -0 -0 -0 -0 -0 -0 -0 -0 -0 -0 -0 -0 -0 -0 -0 -0 -0 -0 -0 -0 -0 -0 -0 -0 -0 -0 -0 -0 -0 -0 -0 -0 -0 -0 -0 -0 -0 -0 -0 -234 -209 -300
-0 -0 -0 -0 -0 -0 -0 -0 -0 -0 -0 -0 -0 -0 -0 -0 -0 -0 -0 -0 -0 -0 -0 -0 -0 -0 -0 -0 -0 -0 -0 -0 -0 -0 -0 -0 -0 -0 -0 -0 -0 -0 -0 -0 -355
-0 -0 -0 -0 -0 -0 -0 -0 -0 -0 -0 -0 -0 -0 -0 -0 -0 -0 -0 -0 -0 -0 -0 -0 -0 -0 -0 -0 -0 -0 -0 -0 -0 -0 -0 -0 -0 -0 -0 -0 -0 -0 -0 -0 -0
-0 -0 -0 -0 -0 -0 -0 -0 -0 -0 -0 -0 -0 -0 -0 -0 -0 -0 -0 -0 -0 -0 -0 -0 -0 -0 -0 -0 -0 -0 -0 -0 -0 -0 -0 -0 -0 -0 -0 -0 -0 -0 -0 -121 -423
-0 -0 -0 -0 -0 -0 -0 -0 -0 -0 -0 -0 -0 -0 -0 -0 -0 -0 -0 -0 -0 -0 -0 -0 -0 -0 -0 -0 -0 -0 -0 -0 -0 -0 -0 -0 -0 -0 -0 -0 -0 -0 -98 -474 -426
-0 -0 -0 -0 -0 -0 -0 -0 -0 -0 -0 -0 -0 -0 -0 -0 -0 -0 -0 -0 -0 -0 -0 -0 -0 -0 -0 -0 -0 -0 -0 -0 -0 -0 -0 -0 -0 -0 -0 -0 -0 -0 -0 -117 -441
-0 -0 -0 -0 -0 -0 -0 -0 -0 -0 -0 -0 -0 -0 -0 -0 -0 -0 -0 -0 -0 -0 -0 -0 -0 -0 -0 -0 -0 -0 -0 -0 -0 -0 -0 -0 -0 -0 -0 -0 -0 -0 -0 -0 -603
-0 -0 -0 -0 -0 -0 -0 -0 -0 -0 -0 -0 -0 -0 -0 -0 -0 -0 -0 -0 -0 -0 -0 -0 -0 -0 -0 -0 -0 -0 -0 -0 -0 -0 -0 -0 -0 -0 -0 -0 -0 -0 -0 -0 -0
-0 -0 -0 -0 -0 -0 -0 -0 -0 -0 -0 -0 -0 -0 -0 -0 -0 -0 -0 -0 -0 -0 -0 -0 -0 -0 -0 -0 -0 -0 -0 -0 -0 -0 -0 -0 -0 -0 -0 -0 -0 -0 -0 -0 -0
-0 -0 -0 -0 -0 -0 -0 -0 -0 -0 -0 -0 -0 -0 -0 -0 -0 -0 -0 -0 -0 -0 -0 -0 -0 -0 -0 -0 -0 -0 -0 -0 -0 -0 -0 -0 -0 -0 -0 -0 -0 -0 -0 -0 -0
-0 -0 -0 -0 -0 -0 -0 -0 -0 -0 -0 -0 -0 -0 -0 -0 -0 -0 -0 -0 -0 -0 -0 -0 -0 -0 -0 -0 -0 -0 -0 -0 -0 -0 -0 -0 -0 -0 -0 -0 -0 -0 -0 -0 -0
-0 -0 -0 -0 -0 -0 -0 -0 -0 -0 -0 -0 -0 -0 -0 -0 -0 -0 -0 -0 -0 -0 -0 -0 -0 -0 -0 -0 -0 -0 -0 -0 -0 -0 -0 -0 -0 -0 -0 -0 -0 -0 -0 -0 -0
-0 -0 -0 -0 -0 -0 -0 -0 -0 -0 -0 -0 -0 -0 -0 -0 -0 -0 -0 -0 -0 -0 -0 -0 -0 -0 -0 -0 -0 -0 -0 -0 -0 -0 -0 -0 -0 -0 -0 -0 -0 -0 -0 -0 -0
-0 -0 -0 -0 -0 -0 -0 -0 -0 -0 -0 -0 -0 -0 -0 -0 -0 -0 -0 -0 -0 -0 -0 -0 -0 -0 -0 -0 -0 -0 -0 -0 -0 -0 -0 -0 -0 -0 -0 -0 -0 -0 -0 -0 -0
-0 -0 -0 -0 -0 -0 -0 -0 -0 -0 -0 -0 -0 -0 -0 -0 -0 -0 -0 -0 -0 -0 -0 -0 -0 -0 -0 -0 -0 -0 -0 -0 -0 -0 -0 -0 -0 -0 -0 -0 -0 -0 -0 -0 -0
-0 -0 -0 -0 -0 -0 -0 -0 -0 -0 -0 -0 -0 -0 -0 -0 -0 -0 -0 -0 -0 -0 -0 -0 -0 -0 -0 -0 -0 -0 -0 -0 -0 -0 -0 -0 -0 -0 -0 -0 -0 -0 -0 -0 -0
-0 -0 -0 -0 -0 -0 -0 -0 -0 -0 -0 -0 -0 -0 -0 -0 -0 -0 -0 -0 -0 -0 -0 -0 -0 -0 -0 -0 -0 -0 -0 -0 -0 -0 -0 -0 -0 -0 -0 -0 -0 -0 -0 -0 -0
-0 -0 -0 -0 -0 -0 -0 -0 -0 -0 -0 -0 -0 -0 -0 -0 -0 -0 -0 -0 -0 -0 -0 -0 -0 -0 -0 -0 -0 -0 -0 -0 -0 -0 -0 -0 -0 -0 -0 -0 -0 -0 -0 -0 -0
-0 -0 -0 -0 -0 -0 -0 -0 -0 -0 -0 -0 -0 -0 -0 -0 -0 -0 -0 -0 -0 -0 -0 -0 -0 -0 -0 -0 -0 -0 -0 -0 -0 -0 -0 -0 -0 -0 -0 -0 -0 -0 -0 -0 -0
Wind_Speed
20 20 20 20 20 20 20 20 20 19 19 19 18 18 18 19 19 20 21 17 8 7 9 10 14 16 15 16 19 17 16 11 11 13 19 23 24 26 19 13 10 14 16 14 12
19 20 20 20 20 20 20 21 21 20 20 19 19 18 18 18 19 19 20 20 10 8 10 8 9 9 13 16 18 17 13 11 10 17 23 28 27 27 20 16 15 18 16 10 13
20 19 19 20 20 20 20 20 21 21 20 20 19 18 18 17 15 15 15 20 18 14 10 10 9 11 14 17 17 16 16 15 23 26 26 31 30 26 16 20 15 11 7 7 9
23 22 21 20 20 20 20 20 20 20 20 19 19 18 17 15 12 14 16 16 8 11 6 9 10 9 9 10 16 19 21 18 29 30 24 31 30 26 19 18 15 6 6 5 6
25 24 23 22 21 21 20 20 20 19 19 18 16 15 15 15 15 15 10 11 7 7 6 6 8 10 15 14 17 11 25 26 28 27 27 14 7 12 22 18 15 7 3 2 4
25 24 23 22 21 21 20 19 19 18 16 15 14 13 15 14 16 11 9 8 8 5 5 7 10 10 16 20 21 21 26 26 28 28 23 18 23 20 27 18 13 4 4 4 5
26 25 24 23 21 20 19 19 18 16 13 12 11 15 16 21 16 9 8 9 11 7 11 20 19 14 20 22 20 23 26 27 23 17 21 23 30 33 29 15 9 1 4 3 4
27 25 24 23 21 20 19 18 17 14 12 11 12 16 19 18 15 8 15 19 19 21 18 16 14 19 14 21 24 26 20 20 15 24 19 25 26 28 25 21 10 6 5 6 6
27 26 25 23 21 20 19 18 15 13 12 11 16 17 20 17 18 19 11 15 9 12 15 19 18 14 17 20 24 20 16 22 27 22 25 23 23 29 30 27 29 10 8 8 8
28 26 25 23 21 20 20 16 14 14 15 18 20 21 21 16 16 9 10 14 12 9 14 12 14 15 20 19 16 18 23 24 28 24 33 29 29 32 32 30 31 25 10 11 10
30 28 26 23 22 20 16 15 19 20 22 26 23 25 24 20 12 8 4 9 16 14 13 17 19 16 10 14 17 21 23 25 33 36 28 27 31 32 30 34 33 32 25 18 14
32 31 28 25 22 18 15 19 21 24 27 27 26 29 31 20 19 16 4 6 9 11 15 18 14 9 16 16 16 20 25 31 29 26 23 28 30 23 27 30 31 32 29 27 26
35 33 30 26 22 15 18 20 23 22 25 27 16 16 14 6 12 11 1 6 12 11 13 11 12 17 19 21 22 23 22 25 23 32 26 30 30 24 25 30 32 31 25 23 23
37 36 31 27 16 20 19 24 25 19 22 21 17 15 9 8 18 4 3 7 14 12 13 18 22 18 19 19 21 26 27 22 24 29 31 26 31 24 28 30 30 30 27 22 22
39 37 31 23 18 18 22 27 24 18 21 16 14 12 6 5 14 12 5 9 10 11 13 16 17 19 21 23 22 24 23 24 24 25 26 27 26 25 28 30 28 27 25 22 20
41 37 29 19 17 20 26 25 17 19 21 17 13 10 9 11 15 14 11 12 15 14 18 19 21 21 22 24 23 25 25 24 24 24 25 25 26 28 28 26 24 23 23 21 18
41 34 23 17 18 24 25 17 20 20 22 21 20 16 13 16 18 18 14 12 13 18 20 23 22 22 21 24 19 22 25 30 29 26 28 24 28 25 21 23 22 21 20 20 17
39 28 20 18 21 24 19 18 23 21 21 21 22 20 18 22 19 20 19 20 20 22 25 24 27 22 19 20 22 22 22 24 30 30 29 26 27 26 20 19 21 21 19 19 17
36 24 19 24 22 21 21 21 22 22 25 25 26 23 21 21 22 23 22 25 24 21 26 28 30 24 19 18 18 20 24 20 25 27 31 28 27 24 21 20 18 18 17 17 16
31 23 20 30 22 21 22 22 21 24 27 24 26 23 26 25 25 25 25 22 22 22 21 25 31 23 20 17 21 20 16 26 27 34 36 30 28 27 20 18 17 16 17 16 15
27 21 25 31 20 21 23 22 24 27 26 25 25 27 26 29 28 29 27 25 25 26 22 22 25 24 21 22 22 21 24 25 26 28 36 37 31 19 15 15 19 19 17 16 15
28 25 29 28 23 22 22 26 26 26 26 25 25 26 28 28 30 30 30 26 26 25 27 24 26 31 28 24 23 23 25 24 32 35 33 34 36 20 17 17 17 17 15 15 14
32 25 25 25 24 25 26 25 24 27 28 27 27 25 26 29 33 29 28 23 26 24 24 22 29 35 34 29 25 28 26 25 26 29 34 36 34 21 19 19 17 17 16 15 13
30 31 26 25 21 25 29 28 27 27 24 28 30 30 30 32 29 33 31 29 30 30 28 25 30 33 38 33 26 29 27 25 27 33 34 33 34 26 22 21 18 17 16 13 12
30 27 26 30 28 32 29 28 31 30 28 29 26 30 32 34 34 34 32 34 30 29 26 27 36 32 33 32 29 30 29 26 29 29 32 35 31 29 24 20 17 15 14 12 10
30 30 29 30 29 31 29 28 31 31 29 29 30 34 34 32 33 35 33 31 32 29 28 27 34 30 36 31 30 34 31 28 27 29 32 32 33 26 27 22 17 14 12 11 10
29 26 27 28 31 32 30 31 33 34 30 27 36 39 37 32 37 37 36 33 31 32 30 30 30 31 39 31 33 42 30 29 30 26 26 28 27 21 22 20 16 12 9 8 9
Wind_Direction
300 294 289 283 278 273 269 267 268 266 262 258 255 254 251 249 248 264 224 235 303 328 307 304 287 277 283 278 264 273 286 291 303 316 303 303 321 332 351 16 18 347 344 6 88
301 296 289 284 277 271 267 266 268 268 266 261 262 266 269 271 265 226 196 173 114 36 309 333 314 318 297 283 272 278 297 299 302 310 298 280 295 328 342 4 0 335 335 68 96
307 298 289 282 275 269 265 263 264 266 264 267 266 271 276 284 287 287 267 138 131 102 301 300 311 298 289 276 276 290 295 300 285 285 301 260 268 322 353 342 358 5 28 82 104
319 310 301 291 281 273 269 268 270 271 268 268 271 276 285 297 329 305 261 114 48 96 23 302 308 325 342 337 287 284 283 302 273 279 309 267 293 306 334 346 357 29 89 98 120
325 319 312 302 295 287 281 280 282 281 278 282 291 301 306 303 301 283 354 73 0 25 47 15 22 339 278 306 298 311 250 269 267 253 261 329 329 330 324 338 347 4 121 135 152
327 323 317 310 302 295 292 291 294 296 295 301 310 318 306 310 292 315 31 36 355 18 39 53 60 3 261 259 263 266 258 258 265 268 303 321 312 322 316 332 340 358 176 191 183
329 323 319 314 308 302 299 300 301 307 315 321 327 303 296 238 277 338 14 330 293 59 87 157 248 329 299 268 267 267 278 282 307 327 318 323 297 294 312 336 335 258 207 276 220
327 323 317 311 308 301 300 300 305 321 336 335 310 289 263 255 267 317 262 238 242 227 254 275 313 304 341 309 300 299 322 321 340 318 335 334 318 311 333 339 321 262 243 267 251
324 320 314 306 301 295 293 300 322 334 329 322 287 280 255 274 265 249 292 284 313 289 284 284 309 332 325 325 312 322 324 315 307 325 327 338 330 316 324 336 330 295 256 275 260
321 316 310 299 290 286 278 308 326 315 299 280 271 264 256 282 287 312 298 295 319 328 312 322 325 324 319 321 325 326 315 312 305 313 311 315 320 323 321 328 326 321 290 274 274
321 315 308 297 286 279 318 310 279 274 270 230 260 243 248 277 306 327 349 320 299 314 312 313 309 312 327 329 324 319 317 316 300 295 315 316 318 322 329 327 320 317 314 306 291
321 315 307 297 287 305 351 302 287 277 269 230 215 220 236 287 290 304 323 329 318 311 313 309 309 320 322 323 325 321 315 308 317 320 320 315 319 336 337 334 332 324 315 313 308
321 316 307 295 290 336 309 310 292 312 292 277 304 296 288 315 304 309 118 311 316 311 310 309 316 318 316 314 318 316 319 321 325 317 318 313 314 326 332 333 329 334 333 328 323
319 316 308 298 328 310 311 304 303 334 304 295 306 309 305 311 304 300 210 307 308 311 315 312 305 306 310 315 318 312 315 322 322 321 316 322 314 323 325 332 337 332 337 336 330
318 316 311 316 321 318 311 300 312 327 305 318 321 330 349 307 321 328 322 295 302 306 315 313 317 313 311 310 314 315 320 318 318 317 319 318 317 320 323 326 336 339 339 338 338
319 316 315 337 328 322 308 317 329 310 300 309 320 314 313 301 310 327 318 301 307 301 302 305 308 309 311 311 312 315 317 318 319 317 310 316 315 316 322 327 334 343 345 341 336
319 317 333 340 326 320 317 321 307 300 309 304 302 304 297 303 301 304 300 293 294 302 300 302 302 307 312 311 314 317 316 311 310 310 308 317 315 315 326 331 334 337 342 344 338
317 326 346 341 330 328 329 310 297 304 304 309 307 304 289 295 303 307 299 293 292 293 300 302 301 307 315 307 308 311 312 307 308 310 312 317 312 315 321 333 336 338 341 342 339
322 338 346 335 331 336 321 302 301 303 306 304 303 298 293 295 299 299 303 300 301 295 287 296 296 306 309 312 311 309 306 313 308 312 309 312 313 315 320 322 326 333 339 342 345
343 339 344 322 336 330 316 303 303 312 306 305 296 301 291 294 296 299 299 309 307 314 306 301 298 303 307 312 316 309 315 306 308 303 304 310 311 310 314 319 325 327 327 328 328
352 345 339 324 342 328 311 307 305 309 313 302 297 293 294 293 295 295 295 303 309 308 312 304 298 301 303 298 296 305 305 309 308 302 301 303 307 317 314 317 317 319 321 322 322
351 342 335 335 329 327 316 313 314 311 312 307 304 298 295 296 293 292 292 295 310 308 299 301 298 291 291 301 302 301 300 301 297 298 299 301 300 311 313 317 319 320 325 327 325
340 343 346 345 328 323 319 315 314 310 308 305 300 303 301 296 294 293 294 300 305 304 301 299 294 291 293 296 298 295 297 299 300 300 293 296 301 316 312 313 313 316 319 323 329
342 331 339 346 341 329 321 316 311 314 311 309 302 302 298 294 294 294 294 298 300 298 297 297 287 285 285 293 299 295 295 295 294 292 296 291 299 305 302 304 307 311 312 318 328
345 337 338 324 323 322 319 314 310 309 311 314 304 308 304 296 295 292 297 297 299 300 297 290 284 285 287 290 290 291 290 288 288 293 291 298 295 299 300 300 301 300 305 306 316
340 335 332 325 325 320 319 315 311 308 308 305 304 304 303 297 298 296 299 301 297 300 298 295 288 289 287 288 288 288 288 290 290 292 293 296 298 302 303 308 306 298 290 294 302
344 340 332 325 321 317 314 312 310 312 307 304 304 300 297 298 300 297 296 294 292 293 294 293 292 290 285 290 290 285 283 285 290 291 295 296 303 310 310 308 308 305 284 281 300